Location: Ebenezer
(18.2167°N, 63.0667°W)
Time: 20:15:21
(UTC+00:00)

Intelsat 5-2 Rocket - Pass Details

Date: 26 January 2020
Orbit: 329 x 10154 km, 23.6° (Epoch: 22 February)

Event Time Altitude Azimuth Distance (km) Brightness Sun altitude
Rises 23:39:42 0° 261° (W) 2,281 7.5 -22.9°
Reaches altitude 10° 23:41:08 10° 263° (W) 1,618 6.3 -23.2°
Maximum altitude 23:44:23 74° 349° (NNW) 753 3.3 -24.0°
Enters shadow 23:45:12 60° 49° (NE) 920 3.5 -24.2°
